Location: Balmoral
(33.0667°S, 151.5833°E)
Time: 01:00:55
(UTC+00:00)

Cosmos 1703 Rocket - Pass Details

Date: 18 September 2020
Orbit: 606 x 632 km, 82.5° (Epoch: 21 October)

Event Time Altitude Azimuth Distance (km) Brightness Sun altitude
Rises 18:47:08 0° 187° (S) 2,929 7.0 -13.4°
Reaches altitude 10° 18:49:24 10° 186° (S) 2,010 6.2 -13.0°
Maximum altitude 18:53:51 89° 96° (E) 626 3.6 -12.0°
Drops below altitude 10° 18:58:13 10° 6° (N) 1,966 6.1 -11.1°
Sets 19:00:25 0° 5° (N) 2,859 7.0 -10.7°
